When you browse on this site, cookies collect data to enhance your experience and personalize the content and advertising you see.
Visit our Privacy Policy to learn more. By continuing to use the site, you agree to this use of cookies and data.
  • In Hungary
  • List of Countries
  • For 7 days
  • Water Temperature
  • Satellite Maps
  • Weather Map
  • News
  • Weather Widgets
  • user-avatar
    Login

    Hourly Weather Artashat

    Today, 25 March, Monday

    Time Temperature Precipitation Wind Pressure Humidity
    00:00 -4°C° 0.2 mm 3 mps 593 mmHg 81%
    01:00 -4°C° 0.1 mm 3 mps 593 mmHg 80%
    02:00 -4°C° 0.1 mm 3 mps 593 mmHg 80%
    03:00 -4°C° 0.1 mm 3 mps 593 mmHg 79%
    04:00 -4°C° 0 mm 2 mps 592 mmHg 78%
    05:00 -4°C° 0 mm 2 mps 592 mmHg 77%
    06:00 -4°C° 0 mm 2 mps 592 mmHg 76%
    07:00 -3°C° 0 mm 2 mps 592 mmHg 73%
    08:00 -2°C° 0 mm 2 mps 592 mmHg 70%
    09:00 -1°C° 0 mm 3 mps 592 mmHg 66%
    10:00 0°C° 0 mm 3 mps 592 mmHg 66%
    11:00 +2°C° 0 mm 2 mps 593 mmHg 66%
    12:00 +2°C° 0 mm 2 mps 593 mmHg 65%
    13:00 +2°C° 0.3 mm 2 mps 592 mmHg 67%
    14:00 +3°C° 0.3 mm 1 mps 592 mmHg 69%
    15:00 +3°C° 0.3 mm 1 mps 592 mmHg 71%
    16:00 +3°C° 0.4 mm 1 mps 592 mmHg 73%
    17:00 +2°C° 0.4 mm 1 mps 593 mmHg 75%
    18:00 +2°C° 0.4 mm 1 mps 593 mmHg 77%
    19:00 +2°C° 0.6 mm 1 mps 593 mmHg 79%
    20:00 +2°C° 0.6 mm 1 mps 594 mmHg 82%
    21:00 +1°C° 0.6 mm 1 mps 594 mmHg 84%
    22:00 +1°C° 0.6 mm 1 mps 594 mmHg 85%
    23:00 +1°C° 0.6 mm 1 mps 594 mmHg 87%

    Tomorrow, 26 March, Tuesday

    Time Temperature Precipitation Wind Pressure Humidity
    00:00 +1°C° 0.6 mm 1 mps 594 mmHg 88%
    01:00 +1°C° 0.3 mm 1 mps 595 mmHg 88%
    02:00 +1°C° 0.3 mm 1 mps 595 mmHg 88%
    03:00 0°C° 0.3 mm 1 mps 595 mmHg 89%
    04:00 0°C° 0.2 mm 1 mps 595 mmHg 89%
    05:00 0°C° 0.2 mm 1 mps 595 mmHg 89%
    06:00 0°C° 0.2 mm 1 mps 595 mmHg 89%
    07:00 0°C° 0.3 mm 1 mps 595 mmHg 87%
    08:00 +1°C° 0.3 mm 1 mps 595 mmHg 84%
    09:00 +1°C° 0.3 mm 1 mps 596 mmHg 81%
    10:00 +2°C° 0.3 mm 1 mps 596 mmHg 80%
    11:00 +2°C° 0.3 mm 1 mps 595 mmHg 78%
    12:00 +3°C° 0.3 mm 1 mps 595 mmHg 77%
    13:00 +3°C° 0.4 mm 1 mps 595 mmHg 76%
    14:00 +3°C° 0.4 mm 1 mps 595 mmHg 75%
    15:00 +3°C° 0.4 mm 0 mps 595 mmHg 74%
    16:00 +3°C° 0.3 mm 1 mps 595 mmHg 74%
    17:00 +3°C° 0.3 mm 1 mps 595 mmHg 75%
    18:00 +3°C° 0.3 mm 1 mps 595 mmHg 75%
    19:00 +2°C° 0 mm 1 mps 595 mmHg 76%
    20:00 -1°C° 0 mm 2 mps 595 mmHg 76%
    21:00 -1°C° 0 mm 2 mps 595 mmHg 77%
    22:00 -2°C° 0 mm 2 mps 595 mmHg 76%
    23:00 0°C° 0 mm 1 mps 595 mmHg 76%

    Day after tomorrow, 27 March, Wednesday

    Time Temperature Precipitation Wind Pressure Humidity
    00:00 0°C° 0 mm 1 mps 595 mmHg 75%
    01:00 0°C° 0 mm 1 mps 595 mmHg 75%
    02:00 -1°C° 0 mm 1 mps 595 mmHg 74%
    03:00 -1°C° 0 mm 1 mps 595 mmHg 74%
    04:00 -3°C° 0.1 mm 2 mps 595 mmHg 74%
    05:00 -3°C° 0.1 mm 2 mps 595 mmHg 74%
    06:00 -3°C° 0.1 mm 2 mps 595 mmHg 73%
    07:00 0°C° 0.1 mm 1 mps 596 mmHg 72%
    08:00 +1°C° 0.1 mm 1 mps 596 mmHg 71%
    09:00 +2°C° 0.1 mm 1 mps 596 mmHg 70%
    10:00 +3°C° 0.1 mm 1 mps 596 mmHg 68%
    11:00 +4°C° 0.1 mm 1 mps 596 mmHg 67%
    12:00 +5°C° 0.1 mm 1 mps 596 mmHg 66%
    13:00 +5°C° 0.1 mm 1 mps 596 mmHg 65%
    14:00 +5°C° 0.1 mm 1 mps 596 mmHg 65%
    15:00 +6°C° 0.1 mm 1 mps 597 mmHg 64%
    16:00 +5°C° 0.1 mm 1 mps 597 mmHg 64%
    17:00 +5°C° 0.1 mm 1 mps 597 mmHg 65%
    18:00 +4°C° 0.1 mm 1 mps 597 mmHg 65%
    19:00 +3°C° 0 mm 1 mps 597 mmHg 67%
    20:00 +3°C° 0 mm 1 mps 597 mmHg 69%
    21:00 +1°C° 0 mm 2 mps 597 mmHg 70%
    22:00 +1°C° 0.1 mm 2 mps 597 mmHg 71%
    23:00 +2°C° 0.1 mm 1 mps 597 mmHg 72%

    28 March, Thursday

    Time Temperature Precipitation Wind Pressure Humidity
    00:00 +1°C° 0.1 mm 1 mps 597 mmHg 73%
    01:00 +1°C° 0.1 mm 1 mps 597 mmHg 74%
    02:00 +1°C° 0.1 mm 1 mps 597 mmHg 75%
    03:00 +1°C° 0.1 mm 1 mps 597 mmHg 76%
    04:00 +1°C° 0.2 mm 1 mps 597 mmHg 76%
    05:00 +1°C° 0.2 mm 1 mps 597 mmHg 77%
    06:00 +1°C° 0.2 mm 1 mps 597 mmHg 78%
    07:00 +1°C° 0.4 mm 1 mps 598 mmHg 76%
    08:00 +2°C° 0.4 mm 1 mps 598 mmHg 74%
    09:00 +2°C° 0.4 mm 1 mps 598 mmHg 72%
    10:00 +3°C° 0.5 mm 1 mps 598 mmHg 71%
    11:00 +3°C° 0.5 mm 1 mps 598 mmHg 69%
    12:00 +4°C° 0.5 mm 1 mps 598 mmHg 68%
    13:00 +4°C° 0.3 mm 1 mps 598 mmHg 66%
    14:00 +5°C° 0.3 mm 1 mps 598 mmHg 64%
    15:00 +5°C° 0.3 mm 1 mps 598 mmHg 62%
    16:00 +5°C° 0.2 mm 1 mps 598 mmHg 62%
    17:00 +4°C° 0.2 mm 1 mps 598 mmHg 63%
    18:00 +4°C° 0.2 mm 1 mps 598 mmHg 63%
    19:00 +3°C° 0.3 mm 1 mps 598 mmHg 65%
    20:00 +3°C° 0.3 mm 1 mps 598 mmHg 68%
    21:00 +2°C° 0.3 mm 1 mps 599 mmHg 70%
    22:00 +2°C° 0.2 mm 1 mps 599 mmHg 71%
    23:00 +2°C° 0.2 mm 1 mps 598 mmHg 72%

    29 March, Friday

    Time Temperature Precipitation Wind Pressure Humidity
    00:00 +1°C° 0.2 mm 1 mps 598 mmHg 73%
    01:00 +1°C° 0.4 mm 1 mps 598 mmHg 74%
    02:00 +1°C° 0.4 mm 1 mps 598 mmHg 75%
    03:00 +1°C° 0.4 mm 1 mps 598 mmHg 76%
    04:00 +1°C° 0.4 mm 1 mps 598 mmHg 77%
    05:00 +1°C° 0.4 mm 1 mps 597 mmHg 78%
    06:00 +1°C° 0.4 mm 1 mps 597 mmHg 79%
    07:00 +1°C° 0.3 mm 1 mps 597 mmHg 76%
    08:00 +1°C° 0.3 mm 2 mps 597 mmHg 73%
    09:00 +2°C° 0.3 mm 2 mps 597 mmHg 71%
    10:00 +2°C° 0.2 mm 2 mps 597 mmHg 68%
    11:00 +3°C° 0.2 mm 2 mps 597 mmHg 65%
    12:00 +3°C° 0.2 mm 3 mps 597 mmHg 63%
    13:00 +4°C° 0.2 mm 2 mps 597 mmHg 61%
    14:00 +4°C° 0.2 mm 2 mps 596 mmHg 60%
    15:00 +6°C° 0.2 mm 1 mps 596 mmHg 59%
    16:00 +5°C° 0.2 mm 1 mps 596 mmHg 60%
    17:00 +5°C° 0.2 mm 1 mps 596 mmHg 61%
    18:00 +5°C° 0.2 mm 1 mps 596 mmHg 62%
    19:00 +4°C° 0.3 mm 1 mps 596 mmHg 64%
    20:00 +4°C° 0.3 mm 1 mps 596 mmHg 67%
    21:00 +4°C° 0.3 mm 1 mps 596 mmHg 69%
    22:00 +3°C° 0.4 mm 1 mps 596 mmHg 71%
    23:00 +3°C° 0.4 mm 1 mps 596 mmHg 73%

    30 March, Saturday

    Time Temperature Precipitation Wind Pressure Humidity
    00:00 +3°C° 0.4 mm 1 mps 595 mmHg 75%
    01:00 +3°C° 0.5 mm 1 mps 595 mmHg 76%
    02:00 +2°C° 0.5 mm 1 mps 595 mmHg 78%
    03:00 +2°C° 0.5 mm 1 mps 595 mmHg 79%
    04:00 +2°C° 0.8 mm 1 mps 595 mmHg 80%
    05:00 +2°C° 0.8 mm 1 mps 595 mmHg 80%
    06:00 +2°C° 0.8 mm 1 mps 595 mmHg 80%
    07:00 +2°C° 0.7 mm 1 mps 595 mmHg 79%
    08:00 +2°C° 0.7 mm 2 mps 595 mmHg 78%
    09:00 +2°C° 0.7 mm 2 mps 595 mmHg 76%
    10:00 +3°C° 0.7 mm 2 mps 595 mmHg 74%
    11:00 +4°C° 0.7 mm 2 mps 595 mmHg 72%
    12:00 +4°C° 0.7 mm 2 mps 595 mmHg 70%
    13:00 +4°C° 0.6 mm 2 mps 595 mmHg 70%
    14:00 +5°C° 0.6 mm 2 mps 595 mmHg 70%
    15:00 +5°C° 0.6 mm 2 mps 595 mmHg 70%
    16:00 +5°C° 0.9 mm 2 mps 594 mmHg 72%
    17:00 +5°C° 0.9 mm 1 mps 594 mmHg 74%
    18:00 +5°C° 0.9 mm 1 mps 594 mmHg 76%
    19:00 +4°C° 0.6 mm 1 mps 594 mmHg 78%
    20:00 +4°C° 0.6 mm 1 mps 594 mmHg 80%
    21:00 +4°C° 0.6 mm 1 mps 594 mmHg 81%
    22:00 +3°C° 0.2 mm 1 mps 594 mmHg 82%
    23:00 +3°C° 0.2 mm 1 mps 593 mmHg 82%
    Show more